Year,Month,Day,Hour,Minute,Value (Times are PST for temperature in C)
2015,07,01,00,00,17.60
2015,07,01,00,01,17.60
2015,07,01,00,02,17.60
2015,07,01,00,03,17.60
2015,07,01,00,04,17.60
2015,07,01,00,05,17.60
2015,07,01,00,06,17.60
2015,07,01,00,07,17.60
2015,07,01,00,08,17.60
2015,07,01,00,09,17.60
2015,07,01,00,10,17.60
2015,07,01,00,11,17.60
2015,07,01,00,12,17.40
2015,07,01,00,13,17.30
2015,07,01,00,14,17.30
2015,07,01,00,15,17.30
2015,07,01,00,16,17.30
2015,07,01,00,17,17.30
2015,07,01,00,18,17.30
2015,07,01,00,19,17.30
2015,07,01,00,20,17.30
2015,07,01,00,21,17.30
2015,07,01,00,22,17.30
2015,07,01,00,23,17.20
2015,07,01,00,24,17.20
2015,07,01,00,25,17.20
2015,07,01,00,26,17.10
2015,07,01,00,27,17.10
2015,07,01,00,28,17.10
2015,07,01,00,29,17.10
2015,07,01,00,30,17.10
2015,07,01,00,31,17.10
2015,07,01,00,32,17.10
2015,07,01,00,33,17.10
2015,07,01,00,34,17.10
2015,07,01,00,35,17.10
2015,07,01,00,36,17.10
2015,07,01,00,37,17.10
2015,07,01,00,38,17.10
2015,07,01,00,39,17.10
2015,07,01,00,40,17.10
2015,07,01,00,41,17.10
2015,07,01,00,42,17.10
2015,07,01,00,43,17.00
2015,07,01,00,44,17.00
2015,07,01,00,45,17.00
2015,07,01,00,46,16.90
2015,07,01,00,47,16.90
2015,07,01,00,48,16.90
2015,07,01,00,49,16.90
2015,07,01,00,50,16.90
2015,07,01,00,51,16.90
2015,07,01,00,52,16.90
2015,07,01,00,53,17.00
2015,07,01,00,54,17.10
2015,07,01,00,55,17.10
2015,07,01,00,56,17.20
2015,07,01,00,57,17.20
2015,07,01,00,58,17.10
2015,07,01,00,59,17.10
2015,07,01,01,00,17.10
2015,07,01,01,01,17.10
2015,07,01,01,02,17.10
2015,07,01,01,03,17.00
2015,07,01,01,04,17.00
2015,07,01,01,05,17.00
2015,07,01,01,06,17.00
2015,07,01,01,07,17.00
2015,07,01,01,08,17.10
2015,07,01,01,09,17.10
2015,07,01,01,10,17.10
2015,07,01,01,11,17.10
2015,07,01,01,12,17.10
2015,07,01,01,13,17.10
2015,07,01,01,14,17.00
2015,07,01,01,15,17.00
2015,07,01,01,16,17.00
2015,07,01,01,17,16.90
2015,07,01,01,18,16.90
2015,07,01,01,19,16.90
2015,07,01,01,20,16.80
2015,07,01,01,21,16.80
2015,07,01,01,22,16.80
2015,07,01,01,23,16.80
2015,07,01,01,24,16.70
2015,07,01,01,25,16.70
2015,07,01,01,26,16.70
2015,07,01,01,27,16.60
2015,07,01,01,28,16.60
2015,07,01,01,29,16.60
2015,07,01,01,30,16.60
2015,07,01,01,31,16.50
2015,07,01,01,32,16.50
2015,07,01,01,33,16.40
2015,07,01,01,34,16.40
2015,07,01,01,35,16.40
2015,07,01,01,36,16.40
2015,07,01,01,37,16.40
2015,07,01,01,38,16.30
2015,07,01,01,39,16.30
2015,07,01,01,40,16.30
2015,07,01,01,41,16.30
2015,07,01,01,42,16.30
2015,07,01,01,43,16.30
2015,07,01,01,44,16.20
2015,07,01,01,45,16.20
2015,07,01,01,46,16.20
2015,07,01,01,47,16.20
2015,07,01,01,48,16.10
2015,07,01,01,49,16.10
2015,07,01,01,50,16.10
2015,07,01,01,51,16.10
2015,07,01,01,52,16.10
2015,07,01,01,53,16.10
2015,07,01,01,54,16.00
2015,07,01,01,55,16.00
2015,07,01,01,56,16.00
2015,07,01,01,57,16.00
2015,07,01,01,58,16.00
2015,07,01,01,59,15.90
2015,07,01,02,00,15.90
2015,07,01,02,01,15.90
2015,07,01,02,02,15.90
2015,07,01,02,03,15.90
2015,07,01,02,04,15.90
2015,07,01,02,05,15.80
2015,07,01,02,06,15.80
2015,07,01,02,07,15.80
2015,07,01,02,08,15.80
2015,07,01,02,09,15.80
2015,07,01,02,10,15.80
2015,07,01,02,11,15.80
2015,07,01,02,12,15.80
2015,07,01,02,13,15.80
2015,07,01,02,14,15.80
2015,07,01,02,15,15.80
2015,07,01,02,16,15.80
2015,07,01,02,17,15.80
2015,07,01,02,18,15.80
2015,07,01,02,19,15.70
2015,07,01,02,20,15.70
2015,07,01,02,21,15.70
2015,07,01,02,22,15.70
2015,07,01,02,23,15.70
2015,07,01,02,24,15.70
2015,07,01,02,25,15.70
2015,07,01,02,26,15.70
2015,07,01,02,27,15.60
2015,07,01,02,28,15.60
2015,07,01,02,29,15.60
2015,07,01,02,30,15.50
2015,07,01,02,31,15.50
2015,07,01,02,32,15.50
2015,07,01,02,33,15.50
2015,07,01,02,34,15.50
2015,07,01,02,35,15.40
2015,07,01,02,36,15.40
2015,07,01,02,37,15.40
2015,07,01,02,38,15.40
2015,07,01,02,39,15.40
2015,07,01,02,40,15.40
2015,07,01,02,41,15.30
2015,07,01,02,42,15.30
2015,07,01,02,43,15.30
2015,07,01,02,44,15.30
2015,07,01,02,45,15.30
2015,07,01,02,46,15.30
2015,07,01,02,47,15.30
2015,07,01,02,48,15.30
2015,07,01,02,49,15.30
2015,07,01,02,50,15.30
2015,07,01,02,51,15.20
2015,07,01,02,52,15.20
2015,07,01,02,53,15.20
2015,07,01,02,54,15.20
2015,07,01,02,55,15.20
2015,07,01,02,56,15.20
2015,07,01,02,57,15.20
2015,07,01,02,58,15.20
2015,07,01,02,59,15.20
2015,07,01,03,00,15.20
2015,07,01,03,01,15.20
2015,07,01,03,02,15.10
2015,07,01,03,03,15.10
2015,07,01,03,04,15.10
2015,07,01,03,05,15.10
2015,07,01,03,06,15.10
2015,07,01,03,07,15.10
2015,07,01,03,08,15.10
2015,07,01,03,09,15.10
2015,07,01,03,10,15.10
2015,07,01,03,11,15.10
2015,07,01,03,12,15.10
2015,07,01,03,13,15.10
2015,07,01,03,14,15.10
2015,07,01,03,15,15.00
2015,07,01,03,16,15.00
2015,07,01,03,17,15.00
2015,07,01,03,18,15.00
2015,07,01,03,19,15.00
2015,07,01,03,20,15.00
2015,07,01,03,21,15.00
2015,07,01,03,22,14.90
2015,07,01,03,23,14.90
2015,07,01,03,24,14.90
2015,07,01,03,25,14.90
2015,07,01,03,26,14.90
2015,07,01,03,27,14.90
2015,07,01,03,28,14.90
2015,07,01,03,29,14.90
2015,07,01,03,30,14.80
2015,07,01,03,31,14.80
2015,07,01,03,32,14.80
2015,07,01,03,33,14.80
2015,07,01,03,34,14.80
2015,07,01,03,35,14.80
2015,07,01,03,36,14.80
2015,07,01,03,37,14.80
2015,07,01,03,38,14.70
2015,07,01,03,39,14.70
2015,07,01,03,40,14.70
2015,07,01,03,41,14.70
2015,07,01,03,42,14.70
2015,07,01,03,43,14.70
2015,07,01,03,44,14.70
2015,07,01,03,45,14.70
2015,07,01,03,46,14.70
2015,07,01,03,47,14.70
2015,07,01,03,48,14.60
2015,07,01,03,49,14.60
2015,07,01,03,50,14.60
2015,07,01,03,51,14.60
2015,07,01,03,52,14.60
2015,07,01,03,53,14.60
2015,07,01,03,54,14.60
2015,07,01,03,55,14.60
2015,07,01,03,56,14.60
2015,07,01,03,57,14.50
2015,07,01,03,58,14.50
2015,07,01,03,59,14.50
2015,07,01,04,00,14.50
2015,07,01,04,01,14.50
2015,07,01,04,02,14.50
2015,07,01,04,03,14.50
2015,07,01,04,04,14.40
2015,07,01,04,05,14.40
2015,07,01,04,06,14.40
2015,07,01,04,07,14.40
2015,07,01,04,08,14.40
2015,07,01,04,09,14.40
2015,07,01,04,10,14.40
2015,07,01,04,11,14.40
2015,07,01,04,12,14.40
2015,07,01,04,13,14.40
2015,07,01,04,14,14.40
2015,07,01,04,15,14.40
2015,07,01,04,16,14.40
2015,07,01,04,17,14.40
2015,07,01,04,18,14.40
2015,07,01,04,19,14.40
2015,07,01,04,20,14.40
2015,07,01,04,21,14.40
2015,07,01,04,22,14.40
2015,07,01,04,23,14.40
2015,07,01,04,24,14.40
2015,07,01,04,25,14.40
2015,07,01,04,26,14.50
2015,07,01,04,27,14.60
2015,07,01,04,28,14.60
2015,07,01,04,29,14.70
2015,07,01,04,30,14.70
2015,07,01,04,31,14.80
2015,07,01,04,32,14.80
2015,07,01,04,33,14.90
2015,07,01,04,34,14.90
2015,07,01,04,35,14.90
2015,07,01,04,36,14.90
2015,07,01,04,37,15.00
2015,07,01,04,38,15.00
2015,07,01,04,39,15.00
2015,07,01,04,40,15.00
2015,07,01,04,41,15.00
2015,07,01,04,42,15.00
2015,07,01,04,43,15.00
2015,07,01,04,44,15.00
2015,07,01,04,45,15.00
2015,07,01,04,46,15.00
2015,07,01,04,47,15.00
2015,07,01,04,48,14.90
2015,07,01,04,49,14.90
2015,07,01,04,50,14.90
2015,07,01,04,51,14.80
2015,07,01,04,52,14.80
2015,07,01,04,53,14.80
2015,07,01,04,54,14.70
2015,07,01,04,55,14.70
2015,07,01,04,56,14.70
2015,07,01,04,57,14.60
2015,07,01,04,58,14.60
2015,07,01,04,59,14.50
2015,07,01,05,00,14.40
2015,07,01,05,01,14.40
2015,07,01,05,02,14.40
2015,07,01,05,03,14.30
2015,07,01,05,04,14.30
2015,07,01,05,05,14.30
2015,07,01,05,06,14.30
2015,07,01,05,07,14.30
2015,07,01,05,08,14.30
2015,07,01,05,09,14.30
2015,07,01,05,10,14.20
2015,07,01,05,11,14.20
2015,07,01,05,12,14.20
2015,07,01,05,13,14.20
2015,07,01,05,14,14.20
2015,07,01,05,15,14.20
2015,07,01,05,16,14.20
2015,07,01,05,17,14.20
2015,07,01,05,18,14.20
2015,07,01,05,19,14.20
2015,07,01,05,20,14.20
2015,07,01,05,21,14.20
2015,07,01,05,22,14.20
2015,07,01,05,23,14.20
2015,07,01,05,24,14.20
2015,07,01,05,25,14.20
2015,07,01,05,26,14.20
2015,07,01,05,27,14.20
2015,07,01,05,28,14.20
2015,07,01,05,29,14.20
2015,07,01,05,30,14.20
2015,07,01,05,31,14.30
2015,07,01,05,32,14.30
2015,07,01,05,33,14.30
2015,07,01,05,34,14.30
2015,07,01,05,35,14.30
2015,07,01,05,36,14.30
2015,07,01,05,37,14.30
2015,07,01,05,38,14.30
2015,07,01,05,39,14.30
2015,07,01,05,40,14.30
2015,07,01,05,41,14.30
2015,07,01,05,42,14.30
2015,07,01,05,43,14.40
2015,07,01,05,44,14.40
2015,07,01,05,45,14.50
2015,07,01,05,46,14.50
2015,07,01,05,47,14.50
2015,07,01,05,48,14.50
2015,07,01,05,49,14.60
2015,07,01,05,50,14.60
2015,07,01,05,51,14.60
2015,07,01,05,52,14.50
2015,07,01,05,53,14.50
2015,07,01,05,54,14.50
2015,07,01,05,55,14.40
2015,07,01,05,56,14.40
2015,07,01,05,57,14.40
2015,07,01,05,58,14.40
2015,07,01,05,59,14.40
2015,07,01,06,00,14.50
2015,07,01,06,01,14.50
2015,07,01,06,02,14.50
2015,07,01,06,03,14.50
2015,07,01,06,04,14.60
2015,07,01,06,05,14.60
2015,07,01,06,06,14.60
2015,07,01,06,07,14.70
2015,07,01,06,08,14.80
2015,07,01,06,09,14.90
2015,07,01,06,10,15.00
2015,07,01,06,11,15.00
2015,07,01,06,12,15.10
2015,07,01,06,13,15.20
2015,07,01,06,14,15.20
2015,07,01,06,15,15.30
2015,07,01,06,16,15.30
2015,07,01,06,17,15.40
2015,07,01,06,18,15.50
2015,07,01,06,19,15.60
2015,07,01,06,20,15.80
2015,07,01,06,21,15.90
2015,07,01,06,22,16.00
2015,07,01,06,23,16.00
2015,07,01,06,24,16.00
2015,07,01,06,25,16.00
2015,07,01,06,26,16.00
2015,07,01,06,27,15.90
2015,07,01,06,28,15.90
2015,07,01,06,29,15.90
2015,07,01,06,30,15.90
2015,07,01,06,31,16.00
2015,07,01,06,32,16.00
2015,07,01,06,33,16.10
2015,07,01,06,34,16.10
2015,07,01,06,35,16.10
2015,07,01,06,36,16.00
2015,07,01,06,37,16.00
2015,07,01,06,38,16.00
2015,07,01,06,39,16.00
2015,07,01,06,40,16.00
2015,07,01,06,41,16.10
2015,07,01,06,42,16.10
2015,07,01,06,43,16.10
2015,07,01,06,44,16.20
2015,07,01,06,45,16.20
2015,07,01,06,46,16.30
2015,07,01,06,47,16.40
2015,07,01,06,48,16.50
2015,07,01,06,49,16.50
2015,07,01,06,50,16.60
2015,07,01,06,51,16.70
2015,07,01,06,52,16.70
2015,07,01,06,53,16.80
2015,07,01,06,54,16.90
2015,07,01,06,55,17.00
2015,07,01,06,56,17.00
2015,07,01,06,57,17.10
2015,07,01,06,58,17.10
2015,07,01,06,59,17.20
2015,07,01,07,00,17.30
2015,07,01,07,01,17.30
2015,07,01,07,02,17.40
2015,07,01,07,03,17.50
2015,07,01,07,04,17.60
2015,07,01,07,05,17.60
2015,07,01,07,06,17.70
2015,07,01,07,07,17.80
2015,07,01,07,08,17.90
2015,07,01,07,09,18.00
2015,07,01,07,10,18.10
2015,07,01,07,11,18.30
2015,07,01,07,12,18.30
2015,07,01,07,13,18.40
2015,07,01,07,14,18.50
2015,07,01,07,15,18.60
2015,07,01,07,16,18.70
2015,07,01,07,17,18.80
2015,07,01,07,18,18.90
2015,07,01,07,19,19.00
2015,07,01,07,20,19.10
2015,07,01,07,21,19.10
2015,07,01,07,22,19.10
2015,07,01,07,23,19.20
2015,07,01,07,24,19.20
2015,07,01,07,25,19.30
2015,07,01,07,26,19.30
2015,07,01,07,27,19.30
2015,07,01,07,28,19.30
2015,07,01,07,29,19.30
2015,07,01,07,30,19.30
2015,07,01,07,31,19.40
2015,07,01,07,32,19.40
2015,07,01,07,33,19.40
2015,07,01,07,34,19.50
2015,07,01,07,35,19.50
2015,07,01,07,36,19.60
2015,07,01,07,37,19.60
2015,07,01,07,38,19.60
2015,07,01,07,39,19.60
2015,07,01,07,40,19.60
2015,07,01,07,41,19.60
2015,07,01,07,42,19.60
2015,07,01,07,43,19.60
2015,07,01,07,44,19.60
2015,07,01,07,45,19.60
2015,07,01,07,46,19.60
2015,07,01,07,47,19.50
2015,07,01,07,48,19.50
2015,07,01,07,49,19.40
2015,07,01,07,50,19.50
2015,07,01,07,51,19.50
2015,07,01,07,52,19.60
2015,07,01,07,53,19.70
2015,07,01,07,54,19.80
2015,07,01,07,55,19.90
2015,07,01,07,56,20.00
2015,07,01,07,57,20.00
2015,07,01,07,58,20.00
2015,07,01,07,59,20.00
2015,07,01,08,00,19.90
2015,07,01,08,01,20.00
2015,07,01,08,02,19.90
2015,07,01,08,03,19.90
2015,07,01,08,04,19.90
2015,07,01,08,05,19.90
2015,07,01,08,06,20.00
2015,07,01,08,07,20.00
2015,07,01,08,08,19.90
2015,07,01,08,09,19.90
2015,07,01,08,10,19.90
2015,07,01,08,11,19.90
2015,07,01,08,12,19.90
2015,07,01,08,13,19.90
2015,07,01,08,14,20.00
2015,07,01,08,15,20.10
2015,07,01,08,16,20.10
2015,07,01,08,17,20.10
2015,07,01,08,18,20.10
2015,07,01,08,19,20.10
2015,07,01,08,20,20.20
2015,07,01,08,21,20.20
2015,07,01,08,22,20.10
2015,07,01,08,23,20.10
2015,07,01,08,24,20.10
2015,07,01,08,25,20.10
2015,07,01,08,26,20.10
2015,07,01,08,27,20.20
2015,07,01,08,28,20.20
2015,07,01,08,29,20.20
2015,07,01,08,30,20.20
2015,07,01,08,31,20.20
2015,07,01,08,32,20.20
2015,07,01,08,33,20.20
2015,07,01,08,34,20.20
2015,07,01,08,35,20.20
2015,07,01,08,36,20.30
2015,07,01,08,37,20.30
2015,07,01,08,38,20.30
2015,07,01,08,39,20.30
2015,07,01,08,40,20.30
2015,07,01,08,41,20.40
2015,07,01,08,42,20.40
2015,07,01,08,43,20.40
2015,07,01,08,44,20.40
2015,07,01,08,45,20.40
2015,07,01,08,46,20.40
2015,07,01,08,47,20.40
2015,07,01,08,48,20.40
2015,07,01,08,49,20.40
2015,07,01,08,50,20.50
2015,07,01,08,51,20.50
2015,07,01,08,52,20.50
2015,07,01,08,53,20.60
2015,07,01,08,54,20.70
2015,07,01,08,55,20.70
2015,07,01,08,56,20.70
2015,07,01,08,57,20.70
2015,07,01,08,58,20.70
2015,07,01,08,59,20.80
2015,07,01,09,00,20.80
2015,07,01,09,01,20.80
2015,07,01,09,02,20.80
2015,07,01,09,03,20.80
2015,07,01,09,04,20.80
2015,07,01,09,05,20.80
2015,07,01,09,06,20.90
2015,07,01,09,07,20.90
2015,07,01,09,08,20.90
2015,07,01,09,09,20.90
2015,07,01,09,10,20.90
2015,07,01,09,11,21.00
2015,07,01,09,12,21.10
2015,07,01,09,13,21.10
2015,07,01,09,14,21.10
2015,07,01,09,15,21.20
2015,07,01,09,16,21.20
2015,07,01,09,17,21.30
2015,07,01,09,18,21.30
2015,07,01,09,19,21.30
2015,07,01,09,20,21.30
2015,07,01,09,21,21.30
2015,07,01,09,22,21.40
2015,07,01,09,23,21.60
2015,07,01,09,24,21.70
2015,07,01,09,25,21.90
2015,07,01,09,26,21.90
2015,07,01,09,27,22.00
2015,07,01,09,28,22.00
2015,07,01,09,29,22.00
2015,07,01,09,30,22.10
2015,07,01,09,31,22.10
2015,07,01,09,32,22.10
2015,07,01,09,33,22.10
2015,07,01,09,34,22.10
2015,07,01,09,35,22.10
2015,07,01,09,36,22.10
2015,07,01,09,37,22.10
2015,07,01,09,38,22.20
2015,07,01,09,39,22.20
2015,07,01,09,40,22.20
2015,07,01,09,41,22.30
2015,07,01,09,42,22.30
2015,07,01,09,43,22.40
2015,07,01,09,44,22.40
2015,07,01,09,45,22.50
2015,07,01,09,46,22.50
2015,07,01,09,47,22.60
2015,07,01,09,48,22.70
2015,07,01,09,49,22.70
2015,07,01,09,50,22.80
2015,07,01,09,51,22.90
2015,07,01,09,52,22.90
2015,07,01,09,53,22.90
2015,07,01,09,54,22.90
2015,07,01,09,55,22.90
2015,07,01,09,56,23.00
2015,07,01,09,57,23.00
2015,07,01,09,58,23.10
2015,07,01,09,59,23.10
2015,07,01,10,00,23.10
2015,07,01,10,01,23.10
2015,07,01,10,02,23.00
2015,07,01,10,03,22.90
2015,07,01,10,04,22.80
2015,07,01,10,05,22.80
2015,07,01,10,06,22.80
2015,07,01,10,07,22.90
2015,07,01,10,08,22.80
2015,07,01,10,09,22.90
2015,07,01,10,10,23.00
2015,07,01,10,11,23.10
2015,07,01,10,12,23.30
2015,07,01,10,13,23.20
2015,07,01,10,14,23.10
2015,07,01,10,15,23.10
2015,07,01,10,16,23.00
2015,07,01,10,17,23.00
2015,07,01,10,18,23.00
2015,07,01,10,19,23.00
2015,07,01,10,20,22.90
2015,07,01,10,21,22.90
2015,07,01,10,22,22.90
2015,07,01,10,23,22.80
2015,07,01,10,24,22.80
2015,07,01,10,25,22.90
2015,07,01,10,26,23.10
2015,07,01,10,27,23.20
2015,07,01,10,28,23.30
2015,07,01,10,29,23.40
2015,07,01,10,30,23.50
2015,07,01,10,31,23.60
2015,07,01,10,32,23.70
2015,07,01,10,33,23.80
2015,07,01,10,34,23.80
2015,07,01,10,35,24.00
2015,07,01,10,36,24.00
2015,07,01,10,37,24.00
2015,07,01,10,38,23.90
2015,07,01,10,39,24.00
2015,07,01,10,40,23.90
2015,07,01,10,41,23.70
2015,07,01,10,42,23.60
2015,07,01,10,43,23.60
2015,07,01,10,44,23.70
2015,07,01,10,45,23.80
2015,07,01,10,46,23.90
2015,07,01,10,47,24.00
2015,07,01,10,48,24.10
2015,07,01,10,49,24.20
2015,07,01,10,50,24.40
2015,07,01,10,51,24.40
2015,07,01,10,52,24.40
2015,07,01,10,53,24.30
2015,07,01,10,54,24.20
2015,07,01,10,55,24.10
2015,07,01,10,56,23.90
2015,07,01,10,57,23.90
2015,07,01,10,58,24.00
2015,07,01,10,59,24.00
2015,07,01,11,00,24.10
2015,07,01,11,01,24.20
2015,07,01,11,02,24.40
2015,07,01,11,03,24.40
2015,07,01,11,04,24.40
2015,07,01,11,05,24.40
2015,07,01,11,06,24.40
2015,07,01,11,07,24.40
2015,07,01,11,08,24.30
2015,07,01,11,09,24.20
2015,07,01,11,10,24.20
2015,07,01,11,11,24.30
2015,07,01,11,12,24.30
2015,07,01,11,13,24.30
2015,07,01,11,14,24.30
2015,07,01,11,15,24.30
2015,07,01,11,16,24.20
2015,07,01,11,17,24.20
2015,07,01,11,18,24.20
2015,07,01,11,19,24.30
2015,07,01,11,20,24.40
2015,07,01,11,21,24.40
2015,07,01,11,22,24.50
2015,07,01,11,23,24.50
2015,07,01,11,24,24.60
2015,07,01,11,25,24.60
2015,07,01,11,26,24.70
2015,07,01,11,27,24.50
2015,07,01,11,28,24.40
2015,07,01,11,29,24.40
2015,07,01,11,30,24.50
2015,07,01,11,31,24.70
2015,07,01,11,32,24.80
2015,07,01,11,33,24.90
2015,07,01,11,34,24.90
2015,07,01,11,35,24.70
2015,07,01,11,36,24.60
2015,07,01,11,37,24.60
2015,07,01,11,38,24.60
2015,07,01,11,39,24.60
2015,07,01,11,40,24.50
2015,07,01,11,41,24.50
2015,07,01,11,42,24.70
2015,07,01,11,43,24.80
2015,07,01,11,44,24.80
2015,07,01,11,45,24.70
2015,07,01,11,46,24.70
2015,07,01,11,47,24.60
2015,07,01,11,48,24.60
2015,07,01,11,49,24.50
2015,07,01,11,50,24.60
2015,07,01,11,51,24.60
2015,07,01,11,52,24.60
2015,07,01,11,53,24.70
2015,07,01,11,54,24.70
2015,07,01,11,55,24.70
2015,07,01,11,56,24.80
2015,07,01,11,57,24.90
2015,07,01,11,58,25.00
2015,07,01,11,59,25.00
2015,07,01,12,00,25.10
2015,07,01,12,01,25.10
2015,07,01,12,02,25.10
2015,07,01,12,03,25.00
2015,07,01,12,04,24.90
2015,07,01,12,05,24.90
2015,07,01,12,06,24.90
2015,07,01,12,07,24.70
2015,07,01,12,08,24.70
2015,07,01,12,09,24.70
2015,07,01,12,10,24.80
2015,07,01,12,11,24.90
2015,07,01,12,12,25.00
2015,07,01,12,13,25.10
2015,07,01,12,14,25.00
2015,07,01,12,15,24.80
2015,07,01,12,16,24.80
2015,07,01,12,17,24.70
2015,07,01,12,18,24.70
2015,07,01,12,19,24.60
2015,07,01,12,20,24.50
2015,07,01,12,21,24.40
2015,07,01,12,22,24.40
2015,07,01,12,23,24.60
2015,07,01,12,24,24.90
2015,07,01,12,25,25.20
2015,07,01,12,26,25.50
2015,07,01,12,27,25.60
2015,07,01,12,28,25.70
2015,07,01,12,29,25.70
2015,07,01,12,30,25.70
2015,07,01,12,31,25.70
2015,07,01,12,32,25.80
2015,07,01,12,33,25.90
2015,07,01,12,34,26.10
2015,07,01,12,35,26.20
2015,07,01,12,36,26.30
2015,07,01,12,37,26.30
2015,07,01,12,38,26.40
2015,07,01,12,39,26.40
2015,07,01,12,40,26.50
2015,07,01,12,41,26.50
2015,07,01,12,42,26.70
2015,07,01,12,43,26.70
2015,07,01,12,44,26.80
2015,07,01,12,45,26.80
2015,07,01,12,46,26.80
2015,07,01,12,47,26.80
2015,07,01,12,48,26.80
2015,07,01,12,49,26.80
2015,07,01,12,50,26.80
2015,07,01,12,51,26.80
2015,07,01,12,52,26.90
2015,07,01,12,53,26.90
2015,07,01,12,54,27.00
2015,07,01,12,55,27.10
2015,07,01,12,56,27.20
2015,07,01,12,57,27.20
2015,07,01,12,58,27.20
2015,07,01,12,59,27.20
2015,07,01,13,00,27.20
2015,07,01,13,01,27.10
2015,07,01,13,02,27.10
2015,07,01,13,03,27.10
2015,07,01,13,04,27.00
2015,07,01,13,05,26.90
2015,07,01,13,06,27.00
2015,07,01,13,07,27.10
2015,07,01,13,08,27.20
2015,07,01,13,09,27.30
2015,07,01,13,10,27.40
2015,07,01,13,11,27.50
2015,07,01,13,12,27.40
2015,07,01,13,13,27.50
2015,07,01,13,14,27.50
2015,07,01,13,15,27.60
2015,07,01,13,16,27.70
2015,07,01,13,17,27.70
2015,07,01,13,18,27.60
2015,07,01,13,19,27.60
2015,07,01,13,20,27.60
2015,07,01,13,21,27.60
2015,07,01,13,22,27.60
2015,07,01,13,23,27.70
2015,07,01,13,24,27.70
2015,07,01,13,25,27.80
2015,07,01,13,26,28.00
2015,07,01,13,27,28.10
2015,07,01,13,28,28.10
2015,07,01,13,29,28.10
2015,07,01,13,30,28.10
2015,07,01,13,31,28.20
2015,07,01,13,32,28.30
2015,07,01,13,33,28.30
2015,07,01,13,34,28.30
2015,07,01,13,35,28.30
2015,07,01,13,36,28.40
2015,07,01,13,37,28.40
2015,07,01,13,38,28.50
2015,07,01,13,39,28.50
2015,07,01,13,40,28.50
2015,07,01,13,41,28.30
2015,07,01,13,42,27.90
2015,07,01,13,43,27.60
2015,07,01,13,44,27.40
2015,07,01,13,45,27.30
2015,07,01,13,46,27.20
2015,07,01,13,47,27.10
2015,07,01,13,48,27.00
2015,07,01,13,49,26.90
2015,07,01,13,50,26.90
2015,07,01,13,51,26.80
2015,07,01,13,52,26.80
2015,07,01,13,53,26.80
2015,07,01,13,54,26.80
2015,07,01,13,55,26.80
2015,07,01,13,56,26.80
2015,07,01,13,57,26.80
2015,07,01,13,58,26.80
2015,07,01,13,59,26.80
2015,07,01,14,00,26.80
2015,07,01,14,01,26.70
2015,07,01,14,02,26.70
2015,07,01,14,03,26.70
2015,07,01,14,04,26.80
2015,07,01,14,05,26.90
2015,07,01,14,06,27.00
2015,07,01,14,07,27.00
2015,07,01,14,08,27.00
2015,07,01,14,09,26.90
2015,07,01,14,10,26.90
2015,07,01,14,11,26.90
2015,07,01,14,12,26.90
2015,07,01,14,13,27.00
2015,07,01,14,14,27.10
2015,07,01,14,15,27.20
2015,07,01,14,16,27.30
2015,07,01,14,17,27.40
2015,07,01,14,18,27.40
2015,07,01,14,19,27.60
2015,07,01,14,20,27.70
2015,07,01,14,21,27.80
2015,07,01,14,22,27.90
2015,07,01,14,23,28.00
2015,07,01,14,24,28.00
2015,07,01,14,25,27.90
2015,07,01,14,26,28.00
2015,07,01,14,27,28.00
2015,07,01,14,28,28.10
2015,07,01,14,29,28.10
2015,07,01,14,30,28.20
2015,07,01,14,31,28.30
2015,07,01,14,32,28.40
2015,07,01,14,33,28.50
2015,07,01,14,34,28.60
2015,07,01,14,35,28.60
2015,07,01,14,36,28.60
2015,07,01,14,37,28.60
2015,07,01,14,38,28.70
2015,07,01,14,39,28.70
2015,07,01,14,40,28.70
2015,07,01,14,41,28.70
2015,07,01,14,42,28.70
2015,07,01,14,43,28.70
2015,07,01,14,44,28.70
2015,07,01,14,45,28.70
2015,07,01,14,46,28.80
2015,07,01,14,47,28.90
2015,07,01,14,48,29.00
2015,07,01,14,49,29.00
2015,07,01,14,50,29.10
2015,07,01,14,51,29.10
2015,07,01,14,52,29.10
2015,07,01,14,53,29.10
2015,07,01,14,54,29.10
2015,07,01,14,55,29.20
2015,07,01,14,56,29.20
2015,07,01,14,57,29.30
2015,07,01,14,58,29.30
2015,07,01,14,59,29.20
2015,07,01,15,00,29.20
2015,07,01,15,01,29.20
2015,07,01,15,02,29.20
2015,07,01,15,03,29.40
2015,07,01,15,04,29.40
2015,07,01,15,05,29.50
2015,07,01,15,06,29.60
2015,07,01,15,07,29.80
2015,07,01,15,08,29.80
2015,07,01,15,09,29.80
2015,07,01,15,10,29.80
2015,07,01,15,11,29.80
2015,07,01,15,12,29.80
2015,07,01,15,13,29.70
2015,07,01,15,14,29.70
2015,07,01,15,15,29.80
2015,07,01,15,16,29.80
2015,07,01,15,17,30.00
2015,07,01,15,18,30.10
2015,07,01,15,19,30.10
2015,07,01,15,20,30.10
2015,07,01,15,21,29.90
2015,07,01,15,22,29.50
2015,07,01,15,23,29.20
2015,07,01,15,24,29.10
2015,07,01,15,25,29.00
2015,07,01,15,26,29.10
2015,07,01,15,27,29.20
2015,07,01,15,28,29.20
2015,07,01,15,29,29.10
2015,07,01,15,30,29.10
2015,07,01,15,31,29.10
2015,07,01,15,32,29.10
2015,07,01,15,33,29.00
2015,07,01,15,34,28.90
2015,07,01,15,35,28.90
2015,07,01,15,36,29.00
2015,07,01,15,37,29.10
2015,07,01,15,38,29.10
2015,07,01,15,39,29.10
2015,07,01,15,40,29.00
2015,07,01,15,41,29.00
2015,07,01,15,42,29.10
2015,07,01,15,43,29.20
2015,07,01,15,44,29.30
2015,07,01,15,45,29.40
2015,07,01,15,46,29.40
2015,07,01,15,47,29.50
2015,07,01,15,48,29.60
2015,07,01,15,49,29.70
2015,07,01,15,50,29.90
2015,07,01,15,51,30.00
2015,07,01,15,52,30.20
2015,07,01,15,53,30.20
2015,07,01,15,54,30.20
2015,07,01,15,55,30.20
2015,07,01,15,56,30.20
2015,07,01,15,57,30.30
2015,07,01,15,58,30.40
2015,07,01,15,59,30.40
2015,07,01,16,00,30.50
2015,07,01,16,01,30.60
2015,07,01,16,02,30.60
2015,07,01,16,03,30.70
2015,07,01,16,04,30.70
2015,07,01,16,05,30.70
2015,07,01,16,06,30.80
2015,07,01,16,07,30.70
2015,07,01,16,08,30.70
2015,07,01,16,09,30.60
2015,07,01,16,10,30.60
2015,07,01,16,11,30.50
2015,07,01,16,12,30.50
2015,07,01,16,13,30.30
2015,07,01,16,14,30.20
2015,07,01,16,15,30.00
2015,07,01,16,16,29.80
2015,07,01,16,17,29.70
2015,07,01,16,18,29.70
2015,07,01,16,19,29.70
2015,07,01,16,20,29.60
2015,07,01,16,21,29.40
2015,07,01,16,22,29.30
2015,07,01,16,23,29.20
2015,07,01,16,24,29.10
2015,07,01,16,25,29.10
2015,07,01,16,26,29.10
2015,07,01,16,27,29.00
2015,07,01,16,28,28.90
2015,07,01,16,29,28.80
2015,07,01,16,30,28.80
2015,07,01,16,31,28.80
2015,07,01,16,32,28.80
2015,07,01,16,33,28.70
2015,07,01,16,34,28.50
2015,07,01,16,35,28.40
2015,07,01,16,36,28.20
2015,07,01,16,37,28.20
2015,07,01,16,38,28.20
2015,07,01,16,39,28.20
2015,07,01,16,40,28.30
2015,07,01,16,41,28.30
2015,07,01,16,42,28.30
2015,07,01,16,43,28.30
2015,07,01,16,44,28.30
2015,07,01,16,45,28.30
2015,07,01,16,46,28.20
2015,07,01,16,47,28.20
2015,07,01,16,48,28.10
2015,07,01,16,49,28.10
2015,07,01,16,50,28.10
2015,07,01,16,51,28.10
2015,07,01,16,52,28.20
2015,07,01,16,53,28.20
2015,07,01,16,54,28.20
2015,07,01,16,55,28.30
2015,07,01,16,56,28.40
2015,07,01,16,57,28.40
2015,07,01,16,58,28.40
2015,07,01,16,59,28.30
2015,07,01,17,00,28.00
2015,07,01,17,01,27.80
2015,07,01,17,02,27.80
2015,07,01,17,03,27.80
2015,07,01,17,04,27.80
2015,07,01,17,05,27.80
2015,07,01,17,06,27.80
2015,07,01,17,07,27.80
2015,07,01,17,08,27.90
2015,07,01,17,09,27.90
2015,07,01,17,10,27.90
2015,07,01,17,11,27.90
2015,07,01,17,12,27.80
2015,07,01,17,13,27.70
2015,07,01,17,14,27.60
2015,07,01,17,15,27.40
2015,07,01,17,16,27.30
2015,07,01,17,17,27.10
2015,07,01,17,18,27.10
2015,07,01,17,19,27.00